WZZ4102 LHBP-EPWA

Flight info

Callsign WZZ4102
Flight time 0h 50m
Altitude 34000
Route LITKU Y301 KALIF/N0433F330 DCT SUPAK DCT ORTEB/N0433F340 DCT KONZI DCT LOGDA
Aircraft A21N/M-SDE1E2E3FGIJ1J4RWXY/LB1

Departure

Time 2026-05-04 19:13
Airport Budapest Liszt Ferenc International Airport (LHBP)

Arrival

Time 2026-05-04 20:03
Airport Warsaw Chopin Airport (EPWA)
Time Latitude Longitude Altitude Speed Heading
2026-05-04 18:21 47.43477 19.26531 463 ft 0 kts 222°
2026-05-04 19:03 47.43480 19.26534 463 ft 3 kts 222°
2026-05-04 19:03 47.43497 19.26557 461 ft 4 kts 224°
2026-05-04 19:03 47.43509 19.26586 460 ft 4 kts 275°
2026-05-04 19:04 47.43499 19.26619 460 ft 4 kts 311°
2026-05-04 19:04 47.43492 19.26629 460 ft 0 kts 313°
2026-05-04 19:07 47.43501 19.26616 459 ft 4 kts 313°
2026-05-04 19:08 47.43528 19.26573 462 ft 7 kts 313°
2026-05-04 19:08 47.43563 19.26517 463 ft 8 kts 313°
2026-05-04 19:08 47.43605 19.26449 463 ft 10 kts 312°
2026-05-04 19:08 47.43654 19.26370 463 ft 7 kts 313°
2026-05-04 19:09 47.43690 19.26353 463 ft 7 kts
2026-05-04 19:09 47.43734 19.26396 461 ft 9 kts 42°
2026-05-04 19:09 47.43795 19.26405 462 ft 11 kts 321°
2026-05-04 19:09 47.43850 19.26320 463 ft 12 kts 312°
2026-05-04 19:10 47.43904 19.26233 463 ft 9 kts 314°
2026-05-04 19:10 47.43966 19.26226 464 ft 11 kts 35°
2026-05-04 19:10 47.44030 19.26309 467 ft 13 kts 43°
2026-05-04 19:10 47.44070 19.26423 476 ft 12 kts 80°
2026-05-04 19:11 47.44065 19.26519 476 ft 9 kts 115°
2026-05-04 19:11 47.44048 19.26557 475 ft 0 kts 130°
2026-05-04 19:12 47.44043 19.26566 475 ft 6 kts 130°
2026-05-04 19:12 47.43316 19.27743 471 ft 144 kts 133°
2026-05-04 19:12 47.42562 19.28947 746 ft 162 kts 133°
2026-05-04 19:13 47.41819 19.30174 1354 ft 161 kts 127°
2026-05-04 19:13 47.41332 19.31709 1843 ft 171 kts 120°
2026-05-04 19:13 47.40753 19.33313 2256 ft 185 kts 123°
2026-05-04 19:13 47.40099 19.35037 2755 ft 199 kts 123°
2026-05-04 19:14 47.39395 19.36883 3291 ft 214 kts 123°
2026-05-04 19:14 47.38632 19.38891 3716 ft 235 kts 122°
2026-05-04 19:14 47.38057 19.41261 4159 ft 260 kts 98°
2026-05-04 19:14 47.38317 19.43961 4809 ft 276 kts 70°
2026-05-04 19:15 47.39255 19.46460 5560 ft 282 kts 50°
2026-05-04 19:15 47.40803 19.48225 6405 ft 284 kts 24°
2026-05-04 19:15 47.42718 19.48916 7192 ft 285 kts
2026-05-04 19:15 47.44709 19.49134 7961 ft 288 kts
2026-05-04 19:16 47.46726 19.49325 8720 ft 292 kts
2026-05-04 19:16 47.48765 19.49549 9479 ft 296 kts
2026-05-04 19:16 47.50833 19.49798 10172 ft 302 kts
2026-05-04 19:16 47.52989 19.50072 10527 ft 319 kts
2026-05-04 19:17 47.55259 19.50368 10867 ft 336 kts
2026-05-04 19:17 47.57616 19.50687 11426 ft 343 kts
2026-05-04 19:17 47.60006 19.51012 12132 ft 346 kts
2026-05-04 19:17 47.62410 19.51347 12865 ft 349 kts
2026-05-04 19:18 47.64839 19.51684 13599 ft 352 kts
2026-05-04 19:18 47.67288 19.52024 14272 ft 355 kts
2026-05-04 19:18 47.69756 19.52368 14937 ft 357 kts
2026-05-04 19:18 47.72238 19.52710 15605 ft 360 kts
2026-05-04 19:19 47.74740 19.53055 16268 ft 362 kts
2026-05-04 19:19 47.77259 19.53402 16938 ft 365 kts
2026-05-04 19:19 47.79791 19.53755 17591 ft 367 kts
2026-05-04 19:19 47.82346 19.54112 18243 ft 370 kts
2026-05-04 19:20 47.84882 19.54466 18803 ft 373 kts
2026-05-04 19:20 47.87507 19.54836 19345 ft 375 kts
2026-05-04 19:20 47.90119 19.55195 19885 ft 378 kts
2026-05-04 19:20 47.92746 19.55555 20419 ft 381 kts
2026-05-04 19:21 47.95357 19.55917 20943 ft 383 kts
2026-05-04 19:21 47.98023 19.56291 21463 ft 386 kts
2026-05-04 19:21 48.00707 19.56670 21977 ft 389 kts
2026-05-04 19:21 48.03407 19.57050 22485 ft 391 kts
2026-05-04 19:22 48.06128 19.57428 22990 ft 394 kts
2026-05-04 19:22 48.08871 19.57811 23484 ft 397 kts
2026-05-04 19:22 48.11629 19.58208 23917 ft 400 kts
2026-05-04 19:22 48.14404 19.58603 24337 ft 401 kts
2026-05-04 19:23 48.17190 19.58993 24751 ft 403 kts
2026-05-04 19:23 48.19993 19.59395 25153 ft 406 kts
2026-05-04 19:23 48.22815 19.59733 25536 ft 408 kts
2026-05-04 19:23 48.25654 19.59614 25911 ft 409 kts 355°
2026-05-04 19:24 48.28501 19.59345 26314 ft 411 kts 355°
2026-05-04 19:24 48.31362 19.59053 26691 ft 413 kts 355°
2026-05-04 19:24 48.34237 19.58761 27061 ft 415 kts 355°
2026-05-04 19:24 48.37125 19.58476 27437 ft 417 kts 355°
2026-05-04 19:25 48.40031 19.58191 27807 ft 419 kts 355°
2026-05-04 19:25 48.42944 19.57912 28161 ft 421 kts 355°
2026-05-04 19:25 48.45872 19.57632 28518 ft 423 kts 355°
2026-05-04 19:25 48.48814 19.57892 28836 ft 427 kts 10°
2026-05-04 19:26 48.51702 19.58961 29169 ft 429 kts 13°
2026-05-04 19:26 48.54594 19.60137 29489 ft 431 kts 13°
2026-05-04 19:26 48.57502 19.61283 29810 ft 433 kts 13°
2026-05-04 19:26 48.60427 19.62405 30115 ft 435 kts 13°
2026-05-04 19:27 48.63367 19.63514 30388 ft 436 kts 12°
2026-05-04 19:27 48.66322 19.64615 30654 ft 438 kts 12°
2026-05-04 19:27 48.69284 19.65723 30914 ft 440 kts 12°
2026-05-04 19:27 48.72262 19.66852 31172 ft 441 kts 13°
2026-05-04 19:28 48.75192 19.67985 31484 ft 441 kts 12°
2026-05-04 19:28 48.78165 19.69104 31795 ft 440 kts 12°
2026-05-04 19:28 48.81136 19.70225 32117 ft 439 kts 13°
2026-05-04 19:28 48.84097 19.71360 32409 ft 439 kts 12°
2026-05-04 19:29 48.87060 19.72480 32702 ft 438 kts 12°
2026-05-04 19:29 48.90015 19.73601 32988 ft 438 kts 12°
2026-05-04 19:29 48.92970 19.74748 33101 ft 438 kts 12°
2026-05-04 19:30 48.98867 19.77026 33089 ft 437 kts 12°
2026-05-04 19:30 49.04765 19.79291 33075 ft 437 kts 12°
2026-05-04 19:31 49.10667 19.81543 33073 ft 437 kts 12°
2026-05-04 19:31 49.16572 19.83816 33069 ft 438 kts 12°
2026-05-04 19:32 49.22473 19.86099 33060 ft 438 kts 12°
2026-05-04 19:32 49.28377 19.88387 33049 ft 438 kts 12°
2026-05-04 19:33 49.34241 19.90665 33044 ft 438 kts 12°
2026-05-04 19:33 49.40141 19.92979 33045 ft 438 kts 12°
2026-05-04 19:34 49.46045 19.95278 33032 ft 437 kts 12°
2026-05-04 19:34 49.51944 19.97566 33032 ft 437 kts 12°
2026-05-04 19:35 49.57836 19.99876 33033 ft 437 kts 12°
2026-05-04 19:35 49.63713 20.02294 33025 ft 438 kts 13°
2026-05-04 19:36 49.69584 20.04812 33015 ft 438 kts 13°
2026-05-04 19:36 49.75449 20.07347 33011 ft 438 kts 13°
2026-05-04 19:37 49.81315 20.09898 33012 ft 438 kts 14°
2026-05-04 19:37 49.87179 20.12447 32999 ft 437 kts 14°
2026-05-04 19:38 49.93018 20.14977 32993 ft 435 kts 14°
2026-05-04 19:38 49.98853 20.17522 32992 ft 435 kts 14°
2026-05-04 19:39 50.04678 20.20095 33001 ft 435 kts 14°
2026-05-04 19:39 50.07584 20.21370 32858 ft 429 kts 14°
2026-05-04 19:39 50.10420 20.22615 32571 ft 418 kts 14°
2026-05-04 19:39 50.13186 20.23825 32293 ft 409 kts 14°
2026-05-04 19:40 50.14998 20.24623 32113 ft 407 kts 13°
2026-05-04 19:40 50.18588 20.26218 31770 ft 404 kts 14°
2026-05-04 19:40 50.21282 20.27414 31510 ft 402 kts 14°
2026-05-04 19:40 50.23965 20.28596 31258 ft 400 kts 14°
2026-05-04 19:41 50.26641 20.29770 31015 ft 398 kts 14°
2026-05-04 19:41 50.29302 20.30940 30768 ft 396 kts 14°
2026-05-04 19:41 50.31950 20.32109 30521 ft 395 kts 14°
2026-05-04 19:41 50.34583 20.33288 30275 ft 393 kts 14°
2026-05-04 19:42 50.36325 20.34070 30124 ft 392 kts 14°
2026-05-04 19:42 50.38945 20.35227 29849 ft 392 kts 14°
2026-05-04 19:42 50.41625 20.36414 29579 ft 408 kts 14°
2026-05-04 19:42 50.44409 20.37628 29324 ft 423 kts 14°
2026-05-04 19:43 50.47292 20.38919 29069 ft 436 kts 14°
2026-05-04 19:43 50.50220 20.40242 28818 ft 438 kts 14°
2026-05-04 19:43 50.53149 20.41532 28553 ft 437 kts 14°
2026-05-04 19:43 50.56068 20.42830 28182 ft 435 kts 14°
2026-05-04 19:44 50.58970 20.44126 27689 ft 432 kts 14°
2026-05-04 19:44 50.61854 20.45427 27142 ft 429 kts 14°
2026-05-04 19:44 50.64713 20.46729 26592 ft 427 kts 14°
2026-05-04 19:44 50.67558 20.48005 26063 ft 424 kts 14°
2026-05-04 19:45 50.70397 20.49276 25540 ft 422 kts 14°
2026-05-04 19:45 50.73217 20.50531 25025 ft 421 kts 14°
2026-05-04 19:45 50.76050 20.51800 24507 ft 429 kts 14°
2026-05-04 19:45 50.78925 20.53101 23960 ft 429 kts 14°
2026-05-04 19:46 50.81750 20.54376 23410 ft 427 kts 14°
2026-05-04 19:46 50.84596 20.55664 22816 ft 425 kts 14°
2026-05-04 19:46 50.87430 20.56952 22256 ft 423 kts 14°
2026-05-04 19:46 50.90249 20.58231 21693 ft 420 kts 14°
2026-05-04 19:47 50.93051 20.59512 21163 ft 419 kts 14°
2026-05-04 19:47 50.95847 20.60789 20636 ft 417 kts 13°
2026-05-04 19:47 50.98627 20.62070 20109 ft 415 kts 14°
2026-05-04 19:47 51.01399 20.63337 19606 ft 414 kts 13°
2026-05-04 19:48 51.04155 20.64607 19125 ft 412 kts 13°
2026-05-04 19:48 51.06908 20.65858 18640 ft 411 kts 13°
2026-05-04 19:48 51.09654 20.67112 18147 ft 409 kts 13°
2026-05-04 19:48 51.12380 20.68378 17619 ft 407 kts 13°
2026-05-04 19:49 51.15090 20.69628 17135 ft 404 kts 13°
2026-05-04 19:49 51.17780 20.70865 16664 ft 401 kts 13°
2026-05-04 19:49 51.20450 20.72085 16198 ft 398 kts 13°
2026-05-04 19:49 51.23108 20.73301 15756 ft 396 kts 13°
2026-05-04 19:50 51.25748 20.74523 15335 ft 394 kts 13°
2026-05-04 19:50 51.28370 20.75741 14910 ft 392 kts 13°
2026-05-04 19:50 51.30982 20.76945 14454 ft 389 kts 13°
2026-05-04 19:50 51.33576 20.78141 14000 ft 387 kts 13°
2026-05-04 19:51 51.36154 20.79331 13537 ft 385 kts 13°
2026-05-04 19:51 51.38716 20.80512 13084 ft 381 kts 13°
2026-05-04 19:51 51.41251 20.81684 12638 ft 378 kts 13°
2026-05-04 19:51 51.43762 20.82859 12174 ft 375 kts 13°
2026-05-04 19:52 51.46261 20.84016 11704 ft 372 kts 13°
2026-05-04 19:52 51.48740 20.85166 11250 ft 370 kts 13°
2026-05-04 19:52 51.51200 20.86313 10819 ft 367 kts 13°
2026-05-04 19:52 51.53614 20.87441 10404 ft 365 kts 13°
2026-05-04 19:53 51.56068 20.88587 10033 ft 359 kts 13°
2026-05-04 19:53 51.58394 20.89679 9764 ft 345 kts 13°
2026-05-04 19:53 51.60649 20.90738 9507 ft 330 kts 13°
2026-05-04 19:53 51.62811 20.91757 9134 ft 317 kts 13°
2026-05-04 19:54 51.64884 20.92732 8814 ft 304 kts 13°
2026-05-04 19:54 51.66902 20.93683 8264 ft 302 kts 13°
2026-05-04 19:54 51.68910 20.94625 7751 ft 298 kts 13°
2026-05-04 19:54 51.70866 20.95547 7414 ft 288 kts 13°
2026-05-04 19:55 51.72749 20.96436 7174 ft 276 kts 14°
2026-05-04 19:55 51.74554 20.97291 6990 ft 264 kts 14°
2026-05-04 19:55 51.76299 20.98113 6632 ft 259 kts 14°
2026-05-04 19:55 51.78025 20.98926 6197 ft 258 kts 14°
2026-05-04 19:56 51.79738 20.99734 5696 ft 255 kts 14°
2026-05-04 19:56 51.81435 21.00536 5230 ft 253 kts 14°
2026-05-04 19:56 51.83114 21.01333 4885 ft 250 kts 14°
2026-05-04 19:56 51.84780 21.02124 4563 ft 249 kts 13°
2026-05-04 19:57 51.86439 21.02910 4225 ft 248 kts 13°
2026-05-04 19:57 51.88084 21.03691 3904 ft 246 kts 13°
2026-05-04 19:57 51.89717 21.04467 3583 ft 243 kts 13°
2026-05-04 19:57 51.91336 21.05239 3266 ft 242 kts 13°
2026-05-04 19:58 51.92944 21.06010 3012 ft 241 kts 13°
2026-05-04 19:58 51.94551 21.06758 2961 ft 240 kts 13°
2026-05-04 19:58 51.96138 21.07496 2966 ft 241 kts 13°
2026-05-04 19:58 51.97748 21.08251 2977 ft 241 kts 13°
2026-05-04 19:59 51.99325 21.09000 2975 ft 228 kts 13°
2026-05-04 19:59 52.00836 21.09612 2967 ft 222 kts
2026-05-04 19:59 52.02324 21.09283 2975 ft 212 kts 335°
2026-05-04 19:59 52.03546 21.08318 2967 ft 184 kts 326°
2026-05-04 20:00 52.04607 21.07273 2758 ft 173 kts 324°
2026-05-04 20:00 52.05617 21.06311 2527 ft 163 kts 326°
2026-05-04 20:00 52.06607 21.05413 2313 ft 163 kts 327°
2026-05-04 20:00 52.07607 21.04536 2134 ft 162 kts 327°
2026-05-04 20:01 52.08540 21.03722 1935 ft 146 kts 327°
2026-05-04 20:01 52.09441 21.02935 1733 ft 149 kts 327°
2026-05-04 20:01 52.10355 21.02139 1535 ft 148 kts 328°
2026-05-04 20:01 52.11258 21.01351 1331 ft 148 kts 328°
2026-05-04 20:02 52.12165 21.00558 1134 ft 148 kts 329°
2026-05-04 20:02 52.13065 20.99756 909 ft 148 kts 330°
2026-05-04 20:02 52.13973 20.98979 728 ft 147 kts 330°
2026-05-04 20:02 52.14876 20.98190 525 ft 147 kts 330°
2026-05-04 20:03 52.15777 20.97409 362 ft 147 kts 330°
2026-05-04 20:03 52.16576 20.96706 348 ft 105 kts 333°
2026-05-04 20:03 52.16993 20.96346 344 ft 45 kts 334°
2026-05-04 20:03 52.17172 20.96246 342 ft 20 kts 352°
2026-05-04 20:04 52.17271 20.96240 352 ft 5 kts
2026-05-04 20:04 52.17306 20.96242 345 ft 6 kts
2026-05-04 20:04 52.17359 20.96248 347 ft 9 kts
2026-05-04 20:04 52.17399 20.96287 352 ft 6 kts 52°
2026-05-04 20:05 52.17407 20.96305 352 ft 0 kts 59°
2026-05-04 20:06 52.17407 20.96306 352 ft 0 kts 59°
2026-05-04 20:06 52.17410 20.96315 346 ft 1 kts 60°
2026-05-04 20:06 52.17421 20.96347 351 ft 5 kts 62°
2026-05-04 20:06 52.17439 20.96410 352 ft 7 kts 65°
2026-05-04 20:07 52.17466 20.96496 347 ft 10 kts 60°
2026-05-04 20:07 52.17502 20.96572 344 ft 0 kts 40°
2026-05-04 20:07 52.17517 20.96569 348 ft 4 kts 338°
2026-05-04 20:07 52.17553 20.96542 347 ft 7 kts 333°
2026-05-04 20:08 52.17602 20.96500 350 ft 9 kts 332°
2026-05-04 20:08 52.17662 20.96447 344 ft 11 kts 332°